Tracking 17996 objects as of 28-February-2017
HD Live streaming from Space Station
objects crossing your sky now

TEAMSAT

Track TEAMSAT now!
10-day predictions
TEAMSAT is classified as:


NORAD ID: 25025
Int'l Code: 1997-066C
Perigee: 591.6 km
Apogee: 26,579.2 km
Inclination: 7.7 °
Period: 467.6 minutes
Semi major axis: 19956 km
RCS: 0.5073 m2 (medium)
Launch date: October 30, 1997
Source: European Space Agency (ESA)
Launch site: FRENCH GUIANA (FRGUI)
Your satellite tracking list
Your tracking list is empty





NASA's NSSDC Master Catalog

Two Line Element Set (TLE):
1 25025U 97066C   17058.19176934 -.00000087  00000-0 -68298-3 0  9996
2 25025   7.7104 100.4341 6511097 329.1246  13.2959  3.07950885217536
Source of the keplerian elements: AFSPC